Regional Weather Roundup
Issued by NWS Columbia, SC

Home | Current Version | Previous Version | Text Only | Print | Product List | Glossary On
Versions: 1 2 3 4 5 6 7 8 9 10 11 12 13 14 15 16 17 18 19 20 21 22 23 24 25 26 27 28 29 30 31 32 33 34 35 36 37 38 39 40 41 42 43 44 45 46 47 48 49 50
000
ASUS42 KCAE 282210
RWRCAE
REGIONAL WEATHER ROUNDUP
NATIONAL WEATHER SERVICE COLUMBIA SC
500 PM EST SUN DEC 28 2014

NOTE: "FAIR" INDICATES FEW OR NO CLOUDS BELOW 12,000 FEET WITH NO
SIGNIFICANT WEATHER AND/OR OBSTRUCTIONS TO VISIBILITY.

NOT ALL STATIONS ARE QUALITY CONTROLLED BY THE NATIONAL
WEATHER SERVICE. USE DATA WITH CAUTION...ESPECIALLY
DEWPOINT OBSERVATIONS.

SCZ001>056-GAZ040-063>065-077-282300-
...UPSTATE SOUTH CAROLINA...

CITY           SKY/WX    TMP DP  RH WIND       PRES   REMARKS
ANDERSON       CLOUDY    57  55  93 W6        30.03S
LIBERTY        CLOUDY    57  40  52 MISG      30.03R
SPARTANBURG    CLOUDY    59  59 100 SW6       30.02S
CLEMSON        CLOUDY    59  55  87 CALM      30.04R
GREENVILLE     CLOUDY    57  54  89 W3        30.04R
GREENWOOD      CLOUDY    59  56  89 SW8       30.05R
GREER          CLOUDY    58  56  93 SW8       30.02R
ROCK HILL      CLOUDY    59  56  89 SW5       30.03R
CHESTER        CLOUDY    61  59  94 CALM      30.04R
LAURENS        CLOUDY    55  55 100 SW5       30.03S


...CENTRAL SOUTH CAROLINA...

CITY           SKY/WX    TMP DP  RH WIND       PRES   REMARKS
COLUMBIA APT   CLOUDY    65  62  90 W7        30.04R
COLUMBIA OWENS CLOUDY    64  60  87 W5        30.05R
DARLINGTON     CLOUDY    63  59  88 W5        30.04R
FLORENCE       CLOUDY    69  61  75 SW10      30.02S
MCENTIRE ANGB  CLOUDY    65  62  91 W6        30.04R
ORANGEBURG     CLOUDY    69  61  75 W3        30.04R
SUMTER SHAW    CLOUDY    67  61  82 W8        30.02R
NEWBERRY       CLOUDY    59 N/A N/A SW9       30.06S
AIKEN          CLOUDY    63  63 100 W7        30.08S
BARNWELL       CLOUDY    70  64  83 NW3       30.05R
MANNING        CLOUDY    70  57  64 CALM      30.04R
CAMDEN         CLOUDY    63  61  94 W6        30.05R
LANCASTER      CLOUDY    59  59 100 W8        30.03R
WINNSBORO      CLOUDY    61  61 100 SW7       30.03S


...EASTERN AND COASTAL SOUTH CAROLINA...

CITY           SKY/WX    TMP DP  RH WIND       PRES   REMARKS
MYRTLE BEACH   MOCLDY    70  61  73 SW9       30.05
N MYRTLE BCH   CLOUDY    66  61  84 SW9       30.03R
CONWAY         CLOUDY    70  63  78 SW3       30.04S
MARION         CLOUDY    70  61  73 SW8       30.03R
HARTSVILLE     CLOUDY    64  64 100 W6        30.04R
FLORENCE       CLOUDY    69  61  75 SW10      30.02S
DARLINGTON     CLOUDY    63  59  88 W5        30.04R
CHARLESTON APT MOCLDY    71  64  78 SW8       30.05S
MOUNT PLEASANT CLOUDY    70  66  88 S8        30.05S
WALTERBORO     CLOUDY    73  61  64 SW3       30.05R
BEAUFORT       PTCLDY    67  62  84 SE5       30.05S


...EASTERN GEORGIA...

CITY           SKY/WX    TMP DP  RH WIND       PRES   REMARKS
AUGUSTA BUSH F CLOUDY    67  61  81 W8        30.05R
AUGUSTA DANIEL MOCLDY    65  61  87 VRB3      30.06R
THOMSON        CLOUDY    65  64  96 CALM      30.09S
WASHINGTON     CLOUDY    63  63 100 SW3       30.04F
CLAXTON        FAIR      70  66  88 CALM      30.05R
SYLVANIA       PTCLDY    73  65  74 CALM      30.05S
STATESBORO     PTCLDY    73  64  71 CALM      30.04S
SAVANNAH       MOCLDY    75  62  64 W5        30.05R


...SOUTHERN NORTH CAROLINA...

CITY           SKY/WX    TMP DP  RH WIND       PRES   REMARKS
CHARLOTTE      CLOUDY    59  54  83 SW3       30.03R
MONROE         CLOUDY    59  56  89 W6        30.02S
WADESBORO      CLOUDY    60  58  93 CALM      30.03S
ROCKINGHAM     CLOUDY    60  59  96 CALM      30.03R
RUTHERFORDTON  MOCLDY    61  55  83 S6        30.02R
ASHEVILLE      PTCLDY    56  47  71 N8        30.04R

$$


USA.gov is the U.S. government's official web portal to all federal, state and local government web resources and services.